User: anonymous   Login
Location: Mascot Post Office (historical)
(40.2645°N, 99.5462°W)
Time: 10:54:07
(UTC+00:00)
Language:

ALOS 2 - Orbit

View from above orbital plane
View from above orbital plane
View from above satellite
View from above satellite

Ground track
Ground track

The orbit data is extracted from the following two-line orbital elements,

1 39766U 14029A   20272.11017489 -.00000208  00000-0 -20936-4 0  9997
2 39766  97.9219   7.2390 0001488  84.3864 275.7526 14.79470031342879
Epoch (UTC): 28 September 2020 02:38:39
Eccentricity: 0.0001488
inclination: 97.9219°
perigee height: 630 km
apogee height: 632 km
right ascension of ascending node: 7.2390°
argument of perigee: 84.3864°
revolutions per day: 14.79470031
mean anomaly at epoch: 275.7526°
orbit number at epoch: 34287

The dashed part of the orbit path shows where the satellite is in the earth's shadow,  

DLR